Silver Bay, MN

10:36 PM CST on January 19, 2018 (GMT -0600)
Silver Bay Municipal

Weather History for KBFW - December, 2013

Change the Weather History Date:

Wednesday, December 4, 2013

  Actual Average Record
Temperature  
Mean Temperature 24 °F -  
Max Temperature 30 °F 27 °F 44 °F (2015)
Min Temperature 19 °F 13 °F -4 °F (2014)
Degree Days  
Heating Degree Days 40    
Moisture  
Dew Point 26 °F    
Average Humidity 99    
Maximum Humidity 100    
Minimum Humidity 93    
Precipitation  
Precipitation 0.29 in - - ()
Sea Level Pressure  
Sea Level Pressure 29.63 in    
Wind  
Wind Speed 15 mph (NE)    
Max Wind Speed 28 mph    
Max Gust Speed 40 mph    
Visibility 2 miles    
Events Snow    
Averages and records for this station are not official NWS values.
T = Trace of Precipitation, MM = Missing Value Source: NWS Daily Summary

Daily Weather History Graph

Daily Weather History Graph

Search for Another Location

Airport or City:

Trip Planner

Search our weather history database for the weather conditions in past years. The results will help you decide how hot, cold, wet, or windy it might be!

Date:

Astronomy

Dec. 04, 2013 Rise Set
Actual Time 7:35 AM CST 4:16 PM CST
Civil Twilight 7:00 AM CST 4:51 PM CST
Nautical Twilight 6:21 AM CST 5:30 PM CST
Astronomical Twilight 5:44 AM CST 6:07 PM CST
Moon 9:01 AM CST (12/4) 6:30 PM CST (12/4)
Length of Visible Light 9h 51m
Length of Day
8h 40m
Waxing Crescent, 4% of the Moon is Illuminated
Dec 4
Waxing Crescent
Dec 9
First Quarter
Dec 17
Full
Dec 25
Last Quarter
Jan 1
New

Hourly Weather History & Observations

Time (CST) Temp. Windchill Dew Point Humidity Pressure Visibility Wind Dir Wind Speed Gust Speed Precip Events Conditions
12:13 AM 19.4 °F 6.6 °F 19.4 °F 100% 29.89 in 2.0 mi NNE 12.7 mph 18.4 mph N/A Snow Light Snow
12:33 AM 21.2 °F 9.5 °F 19.4 °F 93% 29.89 in 2.5 mi NNE 11.5 mph 16.1 mph 0.01 in Snow Light Snow
12:53 AM 21.2 °F 8.3 °F 19.4 °F 93% 29.89 in 4.0 mi NNE 13.8 mph - N/A Snow Light Snow
1:13 AM 21.2 °F 10.1 °F 19.4 °F 93% 29.90 in 5.0 mi NNE 10.4 mph - N/A Snow Light Snow
1:33 AM 21.2 °F 10.9 °F 19.4 °F 93% 29.91 in 7.0 mi NNE 9.2 mph - N/A Snow Light Snow
1:53 AM 21.2 °F 9.5 °F 19.4 °F 93% 29.91 in 5.0 mi NNE 11.5 mph 18.4 mph N/A Snow Light Snow
2:13 AM 21.2 °F 10.9 °F 21.2 °F 100% 29.90 in 10.0 mi NNE 9.2 mph 16.1 mph N/A Snow Light Snow
2:34 AM 21.2 °F 10.1 °F 21.2 °F 100% 29.88 in 10.0 mi NNE 10.4 mph 18.4 mph N/A   Scattered Clouds
2:53 AM 21.2 °F 9.5 °F 21.2 °F 100% 29.89 in 10.0 mi NNE 11.5 mph 18.4 mph N/A   Scattered Clouds
3:13 AM 23.0 °F 10.6 °F 21.2 °F 93% 29.88 in 10.0 mi NE 13.8 mph 20.7 mph N/A   Mostly Cloudy
3:33 AM 23.0 °F 10.1 °F 23.0 °F 100% 29.86 in 10.0 mi NNE 15.0 mph 23.0 mph N/A   Overcast
3:53 AM 23.0 °F 10.6 °F 21.2 °F 93% 29.87 in 10.0 mi NNE 13.8 mph 21.9 mph N/A   Overcast
4:13 AM 23.0 °F 11.7 °F 23.0 °F 100% 29.86 in 10.0 mi NE 11.5 mph 20.7 mph N/A   Overcast
4:33 AM 24.8 °F 11.9 °F 23.0 °F 93% 29.85 in 10.0 mi NE 16.1 mph 25.3 mph N/A   Mostly Cloudy
4:53 AM 24.8 °F 11.9 °F 23.0 °F 93% 29.85 in 7.0 mi NE 16.1 mph 24.2 mph N/A   Scattered Clouds
5:13 AM 24.8 °F 12.4 °F 24.8 °F 100% 29.84 in 4.0 mi NE 15.0 mph 27.6 mph N/A   Scattered Clouds
5:33 AM 24.8 °F 12.9 °F 24.8 °F 100% 29.83 in 4.0 mi NE 13.8 mph 23.0 mph N/A   Scattered Clouds
5:53 AM 24.8 °F 9.3 °F 24.8 °F 100% 29.79 in 2.5 mi NNE 24.2 mph 29.9 mph N/A Snow Light Snow
6:13 AM 24.8 °F 12.9 °F 24.8 °F 100% 29.85 in 2.0 mi NE 13.8 mph 24.2 mph N/A Snow Light Snow
6:33 AM 24.8 °F 11.5 °F 24.8 °F 100% 29.83 in 2.0 mi NE 17.3 mph 27.6 mph N/A   Clear
6:53 AM 24.8 °F 11.9 °F 24.8 °F 100% 29.82 in 1.5 mi NE 16.1 mph 25.3 mph N/A Snow Light Snow
7:13 AM 24.8 °F 12.4 °F 24.8 °F 100% 29.81 in 1.0 mi NE 15.0 mph 25.3 mph N/A Snow Light Snow
7:33 AM 24.8 °F 11.5 °F 24.8 °F 100% 29.80 in 1.0 mi NE 17.3 mph 25.3 mph N/A Snow Light Snow
7:53 AM 24.8 °F 12.9 °F 24.8 °F 100% 29.79 in 1.5 mi NE 13.8 mph 26.5 mph N/A Snow Light Snow
8:13 AM 24.8 °F 11.9 °F 24.8 °F 100% 29.78 in 1.0 mi NE 16.1 mph 25.3 mph N/A Snow Light Snow
8:33 AM 24.8 °F 13.4 °F 24.8 °F 100% 29.80 in 0.5 mi NE 12.7 mph 26.5 mph N/A Snow Light Snow
8:53 AM 24.8 °F 12.9 °F 24.8 °F 100% 29.79 in 0.2 mi NE 13.8 mph 25.3 mph N/A Snow Snow
9:13 AM 24.8 °F 13.4 °F 24.8 °F 100% 29.78 in 0.2 mi NE 12.7 mph 23.0 mph N/A Snow Snow
9:33 AM 24.8 °F 11.9 °F 24.8 °F 100% 29.77 in 0.2 mi NE 16.1 mph 23.0 mph N/A Snow Snow
9:54 AM 24.8 °F 12.4 °F 24.8 °F 100% 29.76 in 0.2 mi NE 15.0 mph 23.0 mph N/A Snow Snow
10:13 AM 26.6 °F 13.4 °F 26.6 °F 100% 29.75 in 0.2 mi NE 18.4 mph 25.3 mph N/A Snow Snow
10:33 AM 26.6 °F 13.8 °F 26.6 °F 100% 29.74 in 0.2 mi NE 17.3 mph 24.2 mph 0.01 in Snow Snow
10:53 AM 26.6 °F 13.4 °F 26.6 °F 100% 29.74 in 0.2 mi NE 18.4 mph 28.8 mph 0.01 in Snow Snow
11:13 AM 26.6 °F 14.7 °F 26.6 °F 100% 29.72 in 0.5 mi NE 15.0 mph 24.2 mph 0.02 in Snow Snow
11:33 AM 26.6 °F 13.1 °F 26.6 °F 100% 29.69 in 0.5 mi ENE 19.6 mph 25.3 mph 0.02 in Snow Snow
11:53 AM 26.6 °F 14.7 °F 26.6 °F 100% 29.68 in 0.2 mi NE 15.0 mph 26.5 mph N/A Snow Snow
12:13 PM 28.4 °F 14.7 °F 28.4 °F 100% 29.66 in 0.5 mi NE 21.9 mph 28.8 mph 0.01 in Snow Light Snow
12:33 PM 28.4 °F 13.3 °F 28.4 °F 100% 29.64 in 0.5 mi ENE 27.6 mph 39.1 mph 0.01 in Snow Light Snow
12:53 PM 30.2 °F 16.8 °F 30.2 °F 100% 29.61 in 0.5 mi ENE 23.0 mph 36.8 mph N/A Snow Light Snow
1:13 PM 30.2 °F 16.5 °F 30.2 °F 100% 29.58 in 0.5 mi ENE 24.2 mph 38.0 mph 0.02 in Snow Light Snow
1:33 PM 30.2 °F 16.2 °F 30.2 °F 100% 29.56 in 0.5 mi NE 25.3 mph 35.7 mph 0.03 in Snow Light Snow
1:54 PM 30.2 °F 17.8 °F 30.2 °F 100% 29.54 in 0.5 mi NE 19.6 mph 34.5 mph 0.01 in Snow Light Snow
2:13 PM 30.2 °F 15.7 °F 30.2 °F 100% 29.53 in 0.5 mi ENE 27.6 mph 36.8 mph 0.01 in Snow Light Snow
2:33 PM 28.4 °F 13.5 °F 28.4 °F 100% 29.53 in 0.2 mi NE 26.5 mph 35.7 mph 0.01 in Snow Snow
2:53 PM 28.4 °F 13.8 °F 28.4 °F 100% 29.53 in 0.2 mi ENE 25.3 mph 35.7 mph N/A Snow Snow
3:13 PM 28.4 °F 16.2 °F 28.4 °F 100% 29.53 in 0.2 mi ENE 17.3 mph 34.5 mph 0.01 in Snow Snow
3:33 PM 28.4 °F 14.4 °F 28.4 °F 100% 29.51 in 0.2 mi NE 23.0 mph 36.8 mph 0.01 in Snow Snow
3:53 PM 28.4 °F 14.7 °F 28.4 °F 100% 29.50 in 0.5 mi NE 21.9 mph 34.5 mph N/A Snow Snow
4:13 PM 30.2 °F 15.9 °F 30.2 °F 100% 29.50 in 1.0 mi NE 26.5 mph 33.4 mph N/A Snow Snow
4:33 PM 28.4 °F 15.4 °F 28.4 °F 100% 29.48 in - NE 19.6 mph 29.9 mph N/A Snow Snow
4:53 PM 28.4 °F 15.4 °F 28.4 °F 100% 29.48 in 0.8 mi NE 19.6 mph 31.1 mph N/A Snow Snow
5:13 PM 28.4 °F 15.1 °F 28.4 °F 100% 29.46 in 0.5 mi NE 20.7 mph 40.3 mph 0.01 in Snow Snow
5:33 PM 28.4 °F 14.1 °F 28.4 °F 100% 29.44 in 0.5 mi NE 24.2 mph 36.8 mph 0.01 in Snow Snow
5:53 PM 28.4 °F 13.5 °F 28.4 °F 100% 29.42 in 0.8 mi NE 26.5 mph 36.8 mph N/A Snow Snow
6:13 PM 28.4 °F 13.5 °F 28.4 °F 100% 29.41 in 0.8 mi ENE 26.5 mph 35.7 mph 0.01 in Snow Snow
6:33 PM 28.4 °F 14.7 °F 28.4 °F 100% 29.39 in - NE 21.9 mph 34.5 mph 0.01 in Snow Snow
6:53 PM 28.4 °F 15.1 °F 28.4 °F 100% 29.37 in - NE 20.7 mph 35.7 mph N/A Snow Snow
7:13 PM 30.2 °F 16.5 °F 30.2 °F 100% 29.36 in - NE 24.2 mph 38.0 mph 0.01 in Snow Snow
7:33 PM 30.2 °F 16.2 °F 30.2 °F 100% 29.34 in - ENE 25.3 mph 29.9 mph N/A   Unknown
7:53 PM 30.2 °F 16.5 °F 30.2 °F 100% 29.33 in 1.2 mi ENE 24.2 mph 34.5 mph N/A Snow Light Snow
8:13 PM 30.2 °F 21.3 °F 30.2 °F 100% 29.32 in 2.5 mi NE 10.4 mph 32.2 mph 0.01 in Snow Light Snow
8:33 PM 28.4 °F 16.6 °F 28.4 °F 100% 29.32 in 1.5 mi NE 16.1 mph 21.9 mph 0.02 in Snow Light Snow
8:53 PM 28.4 °F 18.0 °F 28.4 °F 100% 29.32 in 1.2 mi NE 12.7 mph 23.0 mph N/A Snow Light Snow
9:13 PM 28.4 °F 19.1 °F 28.4 °F 100% 29.32 in 1.5 mi NE 10.4 mph - 0.01 in Snow Light Snow
9:33 PM 30.2 °F 21.9 °F 30.2 °F 100% 29.32 in 1.0 mi NNE 9.2 mph 17.3 mph 0.03 in Snow Light Snow
9:53 PM 28.4 °F 22.2 °F 28.4 °F 100% 29.33 in 1.0 mi NNE 5.8 mph 9.2 mph 0.01 in Snow Snow
10:13 PM 28.4 °F 21.2 °F 28.4 °F 100% 29.31 in 0.8 mi NNE 6.9 mph - 0.05 in Snow Snow
10:33 PM 28.4 °F 23.3 °F 28.4 °F 100% 29.31 in 1.0 mi North 4.6 mph - 0.08 in Snow Snow
10:53 PM 24.8 °F 16.9 °F 23.0 °F 93% 29.29 in 1.2 mi NW 6.9 mph - 0.01 in Snow Light Snow
11:13 PM 21.2 °F 14.9 °F 21.2 °F 100% 29.30 in 1.2 mi NW 4.6 mph - 0.03 in Snow Light Snow
11:33 PM 21.2 °F 13.6 °F 21.2 °F 100% 29.32 in 1.5 mi NW 5.8 mph - 0.04 in Snow Light Snow
11:53 PM 19.4 °F 11.5 °F 19.4 °F 100% 29.32 in 1.8 mi WNW 5.8 mph - 0.01 in Snow Light Snow